SCP
0 0 0 0 0 0 0 -0 -0 -0 -0 -0 -0 -0 -0 0 0 0 0 0 -0 0 -0 -0 -0 -0 -0 -0 -0 -0 -0 -0 -0 -0 0 -0 -0 -0 -0 -0 0 0 -0 -0 -0 -0 -0 -0 -0
0 0 0 0 0 0 0 -0 -0 -0 -0 0 -0 -0 -0 0 0 -0 0 -0 -0 -0 -0 -0 -0 -0 -0 -0 -0 -0 0 -0 -0 -0 -0 -0 -0 -0 -0 -0 0 0 0 -0 -0 -0 -0 -0 -0
0 0 0 0 0 0 0 -0 -0 -0 -0 -0 -0 0 -0 -0 -0 -0 -0 -0 -0 -0 -0 -0 -0 -0 -0 -0 -0 -0 -0 -0 -0 -0 -0 -0 -0 -0 -0 -0 -0 -0 -0 0 -0 -0 -0 -0 0
0 0 0 0 0 0 0 -0 0 0 -0 0 -0 -0 0 0 0 0 -0 -0 -0 -0 -0 -0 -0 -0 -0 -0 -0 -0 -0 -0 -0 0 -0 -0 -0 -0 -0 0 -0 -0 -0 -0 0 -0 0 -0 -0
0 0 0 0 0 0 0 -0 0 0 0 0 0 0 0 0 0 -0 -0 0 -0 0 -0 -0 -0 -0 -0 -0 -0 -0 -0 -0 -0 0 0 -0 -0 -0 -0 -0 -0 0 -0 -0 0 0 -0 0 0
0 0 0 0 0 0 0 0 0 0 0 0 0 0 0 -0 -0 0 -0 -0 -0 -0 -0 -0 -0 -0 -0 -0 -0 -0 -0 -0 -0 -0 -0 0 0 -0 -0 -0 0 0 -0 -0 -0 -0 -0 -0 0
0 0 0 0 0 0 0 0 0 0 0 0 0 0 0 -0 -0 -0 -0 0 -0 0 -0 0 0 -0 -0 -0 -0 -0 -0 -0 -0 0 0 0 0 0 0 0 0 0 -0 0 0 0 -0 -0 -0
0 0 0 0 0 0 0 0 0 0 0 0 0 0 -0 -0 -0 -0 -0 0 0 0 0 0 0 0 0 0 0 -0 -0 -0 -0 -0 -0 -0 -0 0 0 0 0 0 0 0 0 0 0 -0 -0
0 0 0 0 0 0 0 0 0 0 0 0 0 0 -0 0 0 0 0 -0 -0 -0 0 0 0 0 0 0 0 0 0 0 0 0 0 0 0 0 0 0 0 0 0 0 0 0 0 0 -0
0 0 0 0 0 0 0 0 0 0 0 0 0 0 0 0 0 0 0 -0 -0 -0 -0 0 0 0 0 0 0 0 0 0 0 0 0 0 0 0 0 0 0 0 0 0 0 0 0 0 0
0 0 0 0 0 0 0 0 0 0 0 0 0 0 0 0 0 0 -0 0 -0 0 0 0 0 0 0 0 0 0 0 0 0 -0 -0 0 0 0 0 0 0 0 0 0 0 0 0 0 0
0 0 0 0 0 0 0 0 0 0 0 0 0 0 0 0 0 0 -0 -0 0 0 0 0 0 0 0 0 0 0 0 0 0 0 0 0 0 0 0 0 0 0 0 0 0 0 0 0 0
0 0 0 0 0 0 0 0 0 0 0 0 0 0 0 0 0 -0 0 0 0 0 0 0 0 0 0 0 0 0 0 0 0 0 0 0 0 0 0 0 0 0 0 0 0 0 0 0 0
0 0 0 0 0 0 0 0 0 0 0 0 0 0 0 0 0 0 0 -0 0 0 0 0 0 0 0 0 0 0 0 0 0 0 0 0 0 0 0 0 0 0 0 0 0 0 0 0 0
0 0 0 0 0 0 0 0 0 0 0 0 0 0 0 0 0 0 0 0 0 0 0 0 0 0 0 0 0 0 0 0 0 0 0 0 0 0 0 0 0 0 0 0 0 0 0 0 0
0 0 0 0 0 0 0 0 0 0 0 0 0 0 0 0 0 0 0 0 0 0 0 0 0 0 0 0 0 0 0 0 0 0 0 0 0 0 0 0 0 0 0 0 0 0 0 0 0
0 0 0 0 0 0 0 0 0 0 0 0 0 0 0 0 0 0 0 0 0 0 0 0 0 0 0 0 0 0 0 0 0 0 0 0 0 0 0 0 0 0 0 0 0 0 0 0 0
0 0 0 0 0 0 0 0 0 0 0 0 0 0 0 0 0 0 0 0 0 0 0 0 0 0 0 0 0 0 0 0 0 0 0 0 0 0 0 0 0 0 0 0 0 0 0 0 0
0 0 0 0 0 0 0 0 0 0 0 0 0 0 0 0 0 0 0 0 0 0 0 0 0 0 0 0 0 0 0 0 0 0 0 0 0 0 0 0 0 0 0 0 0 0 0 0 0
0 0 0 0 0 0 0 0 0 0 0 0 0 0 0 0 0 0 0 0 0 0 0 0 0 0 0 0 0 0 0 0 0 0 0 0 0 0 0 0 0 0 0 0 0 0 0 0 0
0 0 0 0 0 0 0 0 0 0 0 0 0 0 0 0 0 0 0 0 0 0 0 0 0 0 0 0 0 0 0 0 0 0 0 0 0 0 0 0 0 0 0 0 0 0 0 0 0
0 0 0 0 0 0 0 0 0 0 0 0 0 0 0 0 0 0 0 0 0 0 0 0 0 0 0 0 0 0 0 0 0 0 0 0 0 0 0 0 0 0 0 0 0 0 0 0 0
0 0 0 0 0 0 0 0 0 0 0 0 0 0 0 0 0 0 0 0 0 0 0 0 0 0 0 0 0 0 0 0 0 0 0 0 0 0 0 0 0 0 0 0 0 0 0 0 0
0 0 0 0 0 0 0 0 -0 0 0 0 0 0 0 0 0 0 0 0 0 0 0 0 0 0 0 0 0 0 0 0 0 0 0 0 0 0 0 0 0 0 0 0 0 0 0 0 0
0 0 0 0 0 0 0 0 0 0 0 0 0 0 0 0 0 0 0 0 0 0 0 0 0 0 0 0 0 0 0 0 0 0 0 0 0 0 0 0 0 0 0 0 0 0 0 0 0
0 0 0 0 0 0 0 0 0 0 0 0 0 0 0 0 0 0 0 0 0 0 0 0 0 0 0 0 0 0 0 0 0 0 0 0 0 0 0 0 0 0 0 0 0 0 0 0 0
0 0 0 0 0 0 0 0 0 0 0 0 0 0 0 0 0 0 0 0 0 0 0 0 0 0 0 0 0 0 0 0 0 0 0 0 0 0 0 0 0 0 0 0 0 0 0 0 0
0 0 0 0 0 0 0 0 0 0 0 0 0 0 0 0 0 0 0 0 0 0 0 0 0 0 0 0 0 0 0 0 0 0 0 0 0 0 0 0 0 0 0 0 0 0 0 0 0
0 0 0 0 0 0 0 0 0 0 0 0 0 0 0 0 0 0 0 0 0 0 0 0 0 0 0 0 0 0 0 0 0 0 0 0 0 0 0 0 0 0 0 0 0 0 0 0 0
0 0 0 0 0 0 0 0 0 0 0 0 0 0 0 0 0 0 0 0 0 0 0 0 0 0 0 0 0 0 0 0 0 0 0 0 0 0 0 0 0 0 0 0 0 0 0 0 0
Wind_Speed_500mb
14 2 9 8 8 11 3 2 2 5 7 14 21 15 18 13 4 6 32 18 18 24 26 24 21 18 17 15 14 15 15 13 16 17 17 17 12 8 3 8 19 19 19 21 23 20 19 15 12
9 5 10 7 10 7 6 5 7 6 25 34 26 16 15 6 10 31 32 22 15 21 23 24 21 16 15 12 12 13 14 12 9 11 11 10 10 10 7 12 12 9 20 17 24 22 18 15 11
4 7 5 8 8 9 10 8 10 25 38 4 12 19 9 9 26 28 25 24 24 24 21 22 19 15 11 10 10 11 12 10 7 9 11 12 12 11 8 10 8 10 14 13 19 21 19 14 11
2 5 11 8 7 4 11 14 13 21 4 2 28 15 12 9 21 19 28 18 29 24 21 19 18 14 12 10 10 11 10 8 7 8 9 9 9 9 9 6 8 9 12 9 10 14 17 16 12
4 7 8 9 4 2 2 20 33 12 12 15 5 9 7 17 17 33 26 21 22 22 19 16 17 13 11 9 8 9 9 7 6 3 2 4 7 8 9 4 3 4 5 5 5 4 11 15 7
6 6 10 7 4 4 4 16 18 11 16 20 20 15 6 20 33 37 29 23 15 13 16 14 15 14 10 7 5 5 5 5 4 3 2 2 3 5 8 7 2 1 3 2 2 1 7 11 8
10 7 9 10 10 7 7 19 25 21 18 7 25 9 17 33 36 36 32 25 20 16 14 17 16 15 13 9 6 3 2 2 3 4 4 3 3 5 5 5 3 1 1 3 4 4 5 8 10
7 8 8 6 9 9 15 10 16 26 7 28 16 14 15 44 44 36 33 25 22 17 6 15 16 16 15 13 11 10 9 8 7 7 8 8 7 6 6 6 5 4 5 7 9 9 7 9 12
5 8 6 13 13 8 22 12 10 12 25 11 11 18 25 50 50 43 41 34 28 21 11 13 12 10 9 10 13 12 13 12 11 12 13 13 12 11 10 9 9 8 8 11 12 14 14 14 15
11 6 4 1 6 12 22 28 27 16 18 8 16 20 45 52 53 47 44 36 31 24 18 12 8 5 3 4 8 11 15 16 13 15 18 18 17 16 16 15 15 14 12 13 14 16 17 18 17
5 7 3 7 4 21 26 21 12 37 4 28 45 45 49 52 51 44 37 31 22 17 17 11 6 5 6 8 11 13 17 19 19 17 18 18 18 18 18 17 17 17 17 16 18 18 19 19 19
6 1 3 8 8 10 14 20 11 26 12 35 42 46 52 53 50 46 40 35 29 25 17 12 10 9 7 9 12 15 18 18 21 20 20 20 21 22 19 18 19 21 21 20 20 21 21 21 20
5 3 7 10 16 18 13 12 3 22 9 28 46 50 52 51 47 42 35 29 27 27 21 18 17 16 14 17 18 20 20 21 20 22 22 23 23 23 25 24 21 23 25 25 24 25 25 26 25
3 5 4 2 8 8 10 3 2 10 12 33 49 53 52 50 46 41 39 36 34 28 26 24 25 23 23 25 29 31 29 26 26 26 26 27 27 22 23 27 31 29 29 27 28 28 29 29 30
7 5 8 8 3 3 10 4 10 11 15 38 49 48 46 44 43 44 41 36 34 31 30 31 30 27 27 30 36 40 39 36 36 33 29 30 31 31 32 33 31 34 33 34 33 33 34 35 34
7 9 5 6 4 2 5 13 17 21 26 37 44 47 48 47 47 44 41 42 38 35 34 35 34 33 33 36 40 42 42 40 40 40 36 31 29 31 35 37 35 31 36 37 37 36 37 37 39
12 7 7 9 19 5 7 12 8 21 32 35 42 46 50 51 50 48 48 46 44 41 39 38 38 39 39 44 43 45 43 42 39 40 39 36 30 28 33 35 36 37 37 37 38 38 39 40 41
12 9 9 11 5 6 7 15 14 13 26 37 41 45 50 56 62 52 55 55 51 46 41 40 38 41 43 44 50 46 42 42 42 41 39 34 30 28 34 34 36 36 34 36 36 37 38 42 42
11 8 8 5 3 3 13 14 23 36 24 27 36 39 36 37 59 53 56 59 55 50 46 44 40 39 43 47 48 39 36 38 40 39 38 35 31 28 36 37 35 37 34 35 38 41 41 43 45
6 8 8 6 7 4 7 16 18 28 25 48 55 56 56 51 43 50 59 57 56 49 47 44 41 39 45 47 39 33 29 29 32 33 30 29 31 28 32 34 31 30 26 25 27 34 38 38 36
6 12 8 6 8 3 10 13 13 19 26 51 56 62 69 71 64 56 52 54 53 52 47 41 39 40 46 41 35 30 27 29 29 27 25 24 33 31 29 31 32 30 29 27 28 28 29 30 29
12 13 9 6 6 8 4 12 11 11 18 16 45 64 84 90 82 68 69 68 65 55 46 38 37 43 43 37 32 27 24 29 31 29 29 29 31 32 31 31 28 28 29 32 36 34 36 35 36
11 13 16 10 6 3 2 7 12 7 14 26 41 70 71 63 57 71 72 74 61 51 43 38 41 41 37 31 26 21 20 23 27 26 25 25 27 29 30 33 33 31 35 31 31 34 37 40 32
14 12 11 8 6 10 15 14 10 11 19 10 21 45 37 46 54 53 61 69 61 51 47 45 44 39 32 27 21 18 18 20 23 25 25 26 27 29 29 27 27 29 30 29 32 35 35 33 34
7 14 3 4 1 15 4 13 27 17 22 15 22 35 19 23 27 36 50 67 63 58 53 47 44 36 31 24 20 18 18 18 18 17 17 16 18 20 22 24 25 26 27 27 29 30 31 30 31
16 15 9 14 9 8 4 15 12 16 34 44 55 54 55 48 28 29 41 59 62 56 51 45 41 38 32 26 24 23 21 20 19 19 18 20 23 25 26 27 28 31 33 35 36 36 35 34 33
11 20 11 9 6 4 8 13 16 22 21 20 24 27 39 31 30 34 40 50 53 53 49 43 42 39 35 30 30 29 29 29 28 26 26 28 28 28 28 29 31 34 36 37 37 38 38 36 35
16 18 5 4 3 8 10 10 15 7 18 14 11 26 22 25 28 33 39 46 50 47 42 42 42 40 39 36 35 36 37 37 35 34 33 30 29 29 32 34 35 37 37 37 37 36 35 34 32
8 11 9 9 11 10 4 11 14 18 12 16 19 22 21 26 29 34 41 47 46 44 43 43 45 45 43 40 40 42 44 44 42 39 36 34 35 35 35 35 36 37 37 36 34 33 32 30 27
26 22 24 11 10 8 5 21 9 13 13 10 14 15 14 23 29 33 42 47 48 49 47 47 48 47 47 47 48 48 49 51 48 44 43 41 40 39 38 38 38 37 35 33 30 27 25 24 22
Wind_Direction_500mb
357 349 170 155 61 65 30 265 243 141 59 70 99 117 115 58 97 170 138 140 149 157 150 147 143 134 122 117 119 136 123 106 96 129 150 159 166 171 144 58 123 119 115 138 144 148 141 140 145
3 138 150 115 89 84 268 259 197 182 136 109 83 79 54 84 103 133 144 160 156 165 155 151 148 135 125 111 104 116 127 141 121 102 124 143 168 186 164 128 119 143 108 114 156 157 152 150 150
329 126 149 92 105 150 173 193 177 149 146 128 111 78 79 99 126 135 146 136 160 164 156 161 152 142 136 114 99 104 115 129 97 91 103 110 96 89 89 146 131 118 108 107 141 163 172 168 171
171 113 68 85 132 209 178 182 171 135 217 160 120 72 93 156 149 149 139 139 154 156 154 159 165 159 153 145 129 120 117 123 103 91 69 56 54 58 65 115 129 120 113 126 119 155 174 185 198
74 75 60 76 90 87 166 168 157 143 132 137 105 128 82 158 163 155 147 147 154 151 155 162 170 170 161 154 144 132 133 128 140 159 73 39 41 43 45 70 121 142 149 155 77 127 167 172 153
59 73 67 116 99 58 40 159 138 111 132 127 111 100 108 149 160 153 147 150 169 180 172 169 180 185 181 167 152 140 130 128 124 182 254 305 346 1 18 42 107 218 231 245 102 36 195 198 209
90 74 150 135 152 129 178 162 140 129 136 151 134 94 143 159 163 155 154 165 178 201 214 189 189 199 206 209 208 209 206 198 205 214 236 285 291 323 339 358 29 138 302 303 318 315 270 235 231
60 84 104 182 179 182 160 119 148 132 109 138 143 164 177 167 169 165 164 187 187 205 223 202 199 207 218 225 230 235 241 247 256 262 258 263 264 278 297 307 306 291 304 320 317 313 307 280 275
38 66 146 190 156 178 160 127 158 137 141 159 182 169 163 159 170 174 180 190 196 201 193 167 165 178 209 225 232 233 237 244 255 260 263 265 269 270 278 286 293 297 294 306 314 312 311 303 291
66 77 210 174 214 180 171 145 145 145 140 128 156 161 158 164 174 180 186 192 192 192 185 176 173 183 221 253 264 264 266 246 251 258 259 261 264 267 268 272 274 283 289 294 305 315 317 315 312
109 148 298 6 297 177 163 144 148 144 223 178 166 161 167 171 180 188 189 190 182 179 187 182 190 234 277 295 290 290 298 301 278 264 254 252 254 257 263 271 274 281 285 289 295 301 309 311 310
95 62 121 9 47 132 138 144 156 174 186 197 181 175 174 179 184 186 189 187 187 194 196 206 222 240 264 291 302 301 299 303 304 314 305 276 262 251 253 266 272 276 280 284 288 291 294 300 300
69 292 89 100 81 76 121 71 237 221 212 184 183 179 181 186 189 192 194 199 204 211 214 228 232 246 258 271 280 284 292 292 295 292 297 299 303 279 272 266 271 283 280 284 286 288 288 290 292
90 32 321 107 103 89 109 14 26 217 219 185 187 189 190 193 194 194 202 209 214 220 227 235 243 248 255 274 277 275 274 278 280 282 285 284 282 284 294 293 280 278 286 286 283 284 284 287 288
113 102 22 326 340 122 136 300 225 192 182 181 191 196 200 205 207 210 213 217 218 222 232 243 245 244 260 282 287 276 271 264 266 270 274 276 272 272 270 274 293 286 289 287 289 290 288 290 292
87 59 118 282 199 297 140 243 242 180 183 190 196 204 209 213 216 221 220 216 220 230 239 239 242 252 262 279 289 285 272 265 264 260 262 265 265 267 265 270 276 283 286 281 281 286 288 288 287
8 172 174 297 215 124 157 251 255 200 213 216 214 216 220 223 223 220 219 223 232 242 243 243 253 259 265 281 286 286 271 264 262 258 255 253 253 260 265 267 274 277 279 279 281 283 282 283 285
193 191 230 202 209 194 184 251 265 183 212 228 231 237 240 240 233 230 229 231 236 240 240 244 255 265 271 278 288 282 268 260 256 255 255 249 247 247 263 270 272 272 275 273 278 280 280 280 281
131 149 180 251 235 200 236 237 258 254 238 238 239 244 251 256 242 236 233 231 237 234 235 240 250 267 275 282 287 274 266 257 255 254 252 244 237 233 243 254 266 282 277 271 270 270 272 279 282
134 157 200 287 338 161 277 263 256 261 244 244 250 254 255 252 248 238 232 230 231 231 231 239 255 270 280 284 276 265 258 249 246 248 245 235 223 231 251 258 275 282 291 294 284 274 275 280 282
176 176 166 189 349 15 328 279 234 253 242 254 252 254 257 255 249 236 230 229 229 231 234 244 261 272 276 273 265 259 248 244 240 243 247 238 232 232 246 261 267 277 279 276 276 276 272 269 273
220 179 155 114 71 240 50 284 279 253 262 245 255 251 253 254 253 245 238 234 237 235 237 248 264 267 264 263 257 255 252 248 248 249 252 250 241 237 242 257 264 263 261 263 268 268 269 271 277
213 156 165 150 169 3 231 300 269 277 279 256 255 256 257 261 258 249 240 237 232 229 234 247 255 251 251 247 249 252 248 241 241 242 238 233 230 239 252 262 270 269 269 262 266 275 278 282 276
144 88 59 62 102 260 195 184 225 213 226 261 256 265 267 277 260 250 241 233 224 225 232 239 237 243 235 233 239 240 234 231 229 231 234 240 250 258 267 274 273 272 274 276 275 276 277 277 275
135 120 54 356 292 236 325 202 261 288 259 233 260 275 292 299 250 235 226 221 220 226 230 228 233 230 223 224 231 228 221 220 223 231 241 251 263 270 275 276 276 279 283 285 284 283 282 281 277
176 159 161 198 199 255 114 229 252 247 275 262 264 273 278 284 259 232 221 220 221 222 224 229 231 222 220 225 228 226 226 229 236 240 248 260 267 269 273 277 282 285 287 286 285 283 281 279 276
184 204 157 104 51 47 229 284 289 265 272 268 275 277 269 263 243 231 222 218 218 219 224 231 225 222 223 228 229 233 239 240 241 244 254 263 268 274 279 282 286 288 286 284 284 282 279 276 272
177 157 136 99 219 270 257 257 232 284 244 262 269 268 260 231 227 224 218 217 217 222 229 228 226 226 229 230 236 244 247 246 244 251 258 262 267 273 280 284 286 286 285 285 282 277 274 269 265
155 189 200 148 160 196 261 254 220 234 235 250 238 264 259 252 243 230 220 217 221 229 234 236 231 233 235 239 246 250 252 251 251 254 257 260 265 270 276 280 284 285 287 283 278 274 268 262 255
222 218 198 199 219 239 234 253 223 226 228 206 213 254 285 271 261 246 231 225 227 234 240 240 238 242 243 246 250 254 256 255 255 253 256 258 263 267 272 277 281 280 280 278 275 269 259 248 237
Wind_Speed_850mb
14 2 9 8 8 11 3 2 2 5 7 14 21 15 18 13 4 6 32 18 18 24 26 24 21 18 17 15 14 15 15 13 16 17 17 17 12 8 3 8 19 19 19 21 23 20 19 15 12
9 5 10 7 10 7 6 5 7 6 25 34 26 16 15 6 10 31 32 22 15 21 23 24 21 16 15 12 12 13 14 12 9 11 11 10 10 10 7 12 12 9 20 17 24 22 18 15 11
4 7 5 8 8 9 10 8 10 25 38 4 12 19 9 9 26 28 25 24 24 24 21 22 19 15 11 10 10 11 12 10 7 9 11 12 12 11 8 10 8 10 14 13 19 21 19 14 11
2 5 11 8 7 4 11 14 13 21 4 2 28 15 12 9 21 19 28 18 29 24 21 19 18 14 12 10 10 11 10 8 7 8 9 9 9 9 9 6 8 9 12 9 10 14 17 16 12
4 7 8 9 4 2 2 20 33 12 12 15 5 9 7 17 17 33 26 21 22 22 19 16 17 13 11 9 8 9 9 7 6 3 2 4 7 8 9 4 3 4 5 5 5 4 11 15 7
6 6 10 7 4 4 4 16 18 11 16 20 20 15 6 20 33 37 29 23 15 13 16 14 15 14 10 7 5 5 5 5 4 3 2 2 3 5 8 7 2 1 3 2 2 1 7 11 8
10 7 9 10 10 7 7 19 25 21 18 7 25 9 17 33 36 36 32 25 20 16 14 17 16 15 13 9 6 3 2 2 3 4 4 3 3 5 5 5 3 1 1 3 4 4 5 8 10
7 8 8 6 9 9 15 10 16 26 7 28 16 14 15 44 44 36 33 25 22 17 6 15 16 16 15 13 11 10 9 8 7 7 8 8 7 6 6 6 5 4 5 7 9 9 7 9 12
5 8 6 13 13 8 22 12 10 12 25 11 11 18 25 50 50 43 41 34 28 21 11 13 12 10 9 10 13 12 13 12 11 12 13 13 12 11 10 9 9 8 8 11 12 14 14 14 15
11 6 4 1 6 12 22 28 27 16 18 8 16 20 45 52 53 47 44 36 31 24 18 12 8 5 3 4 8 11 15 16 13 15 18 18 17 16 16 15 15 14 12 13 14 16 17 18 17
5 7 3 7 4 21 26 21 12 37 4 28 45 45 49 52 51 44 37 31 22 17 17 11 6 5 6 8 11 13 17 19 19 17 18 18 18 18 18 17 17 17 17 16 18 18 19 19 19
6 1 3 8 8 10 14 20 11 26 12 35 42 46 52 53 50 46 40 35 29 25 17 12 10 9 7 9 12 15 18 18 21 20 20 20 21 22 19 18 19 21 21 20 20 21 21 21 20
5 3 7 10 16 18 13 12 3 22 9 28 46 50 52 51 47 42 35 29 27 27 21 18 17 16 14 17 18 20 20 21 20 22 22 23 23 23 25 24 21 23 25 25 24 25 25 26 25
3 5 4 2 8 8 10 3 2 10 12 33 49 53 52 50 46 41 39 36 34 28 26 24 25 23 23 25 29 31 29 26 26 26 26 27 27 22 23 27 31 29 29 27 28 28 29 29 30
7 5 8 8 3 3 10 4 10 11 15 38 49 48 46 44 43 44 41 36 34 31 30 31 30 27 27 30 36 40 39 36 36 33 29 30 31 31 32 33 31 34 33 34 33 33 34 35 34
7 9 5 6 4 2 5 13 17 21 26 37 44 47 48 47 47 44 41 42 38 35 34 35 34 33 33 36 40 42 42 40 40 40 36 31 29 31 35 37 35 31 36 37 37 36 37 37 39
12 7 7 9 19 5 7 12 8 21 32 35 42 46 50 51 50 48 48 46 44 41 39 38 38 39 39 44 43 45 43 42 39 40 39 36 30 28 33 35 36 37 37 37 38 38 39 40 41
12 9 9 11 5 6 7 15 14 13 26 37 41 45 50 56 62 52 55 55 51 46 41 40 38 41 43 44 50 46 42 42 42 41 39 34 30 28 34 34 36 36 34 36 36 37 38 42 42
11 8 8 5 3 3 13 14 23 36 24 27 36 39 36 37 59 53 56 59 55 50 46 44 40 39 43 47 48 39 36 38 40 39 38 35 31 28 36 37 35 37 34 35 38 41 41 43 45
6 8 8 6 7 4 7 16 18 28 25 48 55 56 56 51 43 50 59 57 56 49 47 44 41 39 45 47 39 33 29 29 32 33 30 29 31 28 32 34 31 30 26 25 27 34 38 38 36
6 12 8 6 8 3 10 13 13 19 26 51 56 62 69 71 64 56 52 54 53 52 47 41 39 40 46 41 35 30 27 29 29 27 25 24 33 31 29 31 32 30 29 27 28 28 29 30 29
12 13 9 6 6 8 4 12 11 11 18 16 45 64 84 90 82 68 69 68 65 55 46 38 37 43 43 37 32 27 24 29 31 29 29 29 31 32 31 31 28 28 29 32 36 34 36 35 36
11 13 16 10 6 3 2 7 12 7 14 26 41 70 71 63 57 71 72 74 61 51 43 38 41 41 37 31 26 21 20 23 27 26 25 25 27 29 30 33 33 31 35 31 31 34 37 40 32
14 12 11 8 6 10 15 14 10 11 19 10 21 45 37 46 54 53 61 69 61 51 47 45 44 39 32 27 21 18 18 20 23 25 25 26 27 29 29 27 27 29 30 29 32 35 35 33 34
7 14 3 4 1 15 4 13 27 17 22 15 22 35 19 23 27 36 50 67 63 58 53 47 44 36 31 24 20 18 18 18 18 17 17 16 18 20 22 24 25 26 27 27 29 30 31 30 31
16 15 9 14 9 8 4 15 12 16 34 44 55 54 55 48 28 29 41 59 62 56 51 45 41 38 32 26 24 23 21 20 19 19 18 20 23 25 26 27 28 31 33 35 36 36 35 34 33
11 20 11 9 6 4 8 13 16 22 21 20 24 27 39 31 30 34 40 50 53 53 49 43 42 39 35 30 30 29 29 29 28 26 26 28 28 28 28 29 31 34 36 37 37 38 38 36 35
16 18 5 4 3 8 10 10 15 7 18 14 11 26 22 25 28 33 39 46 50 47 42 42 42 40 39 36 35 36 37 37 35 34 33 30 29 29 32 34 35 37 37 37 37 36 35 34 32
8 11 9 9 11 10 4 11 14 18 12 16 19 22 21 26 29 34 41 47 46 44 43 43 45 45 43 40 40 42 44 44 42 39 36 34 35 35 35 35 36 37 37 36 34 33 32 30 27
26 22 24 11 10 8 5 21 9 13 13 10 14 15 14 23 29 33 42 47 48 49 47 47 48 47 47 47 48 48 49 51 48 44 43 41 40 39 38 38 38 37 35 33 30 27 25 24 22
Wind_Direction_850mb
357 349 170 155 61 65 30 265 243 141 59 70 99 117 115 58 97 170 138 140 149 157 150 147 143 134 122 117 119 136 123 106 96 129 150 159 166 171 144 58 123 119 115 138 144 148 141 140 145
3 138 150 115 89 84 268 259 197 182 136 109 83 79 54 84 103 133 144 160 156 165 155 151 148 135 125 111 104 116 127 141 121 102 124 143 168 186 164 128 119 143 108 114 156 157 152 150 150
329 126 149 92 105 150 173 193 177 149 146 128 111 78 79 99 126 135 146 136 160 164 156 161 152 142 136 114 99 104 115 129 97 91 103 110 96 89 89 146 131 118 108 107 141 163 172 168 171
171 113 68 85 132 209 178 182 171 135 217 160 120 72 93 156 149 149 139 139 154 156 154 159 165 159 153 145 129 120 117 123 103 91 69 56 54 58 65 115 129 120 113 126 119 155 174 185 198
74 75 60 76 90 87 166 168 157 143 132 137 105 128 82 158 163 155 147 147 154 151 155 162 170 170 161 154 144 132 133 128 140 159 73 39 41 43 45 70 121 142 149 155 77 127 167 172 153
59 73 67 116 99 58 40 159 138 111 132 127 111 100 108 149 160 153 147 150 169 180 172 169 180 185 181 167 152 140 130 128 124 182 254 305 346 1 18 42 107 218 231 245 102 36 195 198 209
90 74 150 135 152 129 178 162 140 129 136 151 134 94 143 159 163 155 154 165 178 201 214 189 189 199 206 209 208 209 206 198 205 214 236 285 291 323 339 358 29 138 302 303 318 315 270 235 231
60 84 104 182 179 182 160 119 148 132 109 138 143 164 177 167 169 165 164 187 187 205 223 202 199 207 218 225 230 235 241 247 256 262 258 263 264 278 297 307 306 291 304 320 317 313 307 280 275
38 66 146 190 156 178 160 127 158 137 141 159 182 169 163 159 170 174 180 190 196 201 193 167 165 178 209 225 232 233 237 244 255 260 263 265 269 270 278 286 293 297 294 306 314 312 311 303 291
66 77 210 174 214 180 171 145 145 145 140 128 156 161 158 164 174 180 186 192 192 192 185 176 173 183 221 253 264 264 266 246 251 258 259 261 264 267 268 272 274 283 289 294 305 315 317 315 312
109 148 298 6 297 177 163 144 148 144 223 178 166 161 167 171 180 188 189 190 182 179 187 182 190 234 277 295 290 290 298 301 278 264 254 252 254 257 263 271 274 281 285 289 295 301 309 311 310
95 62 121 9 47 132 138 144 156 174 186 197 181 175 174 179 184 186 189 187 187 194 196 206 222 240 264 291 302 301 299 303 304 314 305 276 262 251 253 266 272 276 280 284 288 291 294 300 300
69 292 89 100 81 76 121 71 237 221 212 184 183 179 181 186 189 192 194 199 204 211 214 228 232 246 258 271 280 284 292 292 295 292 297 299 303 279 272 266 271 283 280 284 286 288 288 290 292
90 32 321 107 103 89 109 14 26 217 219 185 187 189 190 193 194 194 202 209 214 220 227 235 243 248 255 274 277 275 274 278 280 282 285 284 282 284 294 293 280 278 286 286 283 284 284 287 288
113 102 22 326 340 122 136 300 225 192 182 181 191 196 200 205 207 210 213 217 218 222 232 243 245 244 260 282 287 276 271 264 266 270 274 276 272 272 270 274 293 286 289 287 289 290 288 290 292
87 59 118 282 199 297 140 243 242 180 183 190 196 204 209 213 216 221 220 216 220 230 239 239 242 252 262 279 289 285 272 265 264 260 262 265 265 267 265 270 276 283 286 281 281 286 288 288 287
8 172 174 297 215 124 157 251 255 200 213 216 214 216 220 223 223 220 219 223 232 242 243 243 253 259 265 281 286 286 271 264 262 258 255 253 253 260 265 267 274 277 279 279 281 283 282 283 285
193 191 230 202 209 194 184 251 265 183 212 228 231 237 240 240 233 230 229 231 236 240 240 244 255 265 271 278 288 282 268 260 256 255 255 249 247 247 263 270 272 272 275 273 278 280 280 280 281
131 149 180 251 235 200 236 237 258 254 238 238 239 244 251 256 242 236 233 231 237 234 235 240 250 267 275 282 287 274 266 257 255 254 252 244 237 233 243 254 266 282 277 271 270 270 272 279 282
134 157 200 287 338 161 277 263 256 261 244 244 250 254 255 252 248 238 232 230 231 231 231 239 255 270 280 284 276 265 258 249 246 248 245 235 223 231 251 258 275 282 291 294 284 274 275 280 282
176 176 166 189 349 15 328 279 234 253 242 254 252 254 257 255 249 236 230 229 229 231 234 244 261 272 276 273 265 259 248 244 240 243 247 238 232 232 246 261 267 277 279 276 276 276 272 269 273
220 179 155 114 71 240 50 284 279 253 262 245 255 251 253 254 253 245 238 234 237 235 237 248 264 267 264 263 257 255 252 248 248 249 252 250 241 237 242 257 264 263 261 263 268 268 269 271 277
213 156 165 150 169 3 231 300 269 277 279 256 255 256 257 261 258 249 240 237 232 229 234 247 255 251 251 247 249 252 248 241 241 242 238 233 230 239 252 262 270 269 269 262 266 275 278 282 276
144 88 59 62 102 260 195 184 225 213 226 261 256 265 267 277 260 250 241 233 224 225 232 239 237 243 235 233 239 240 234 231 229 231 234 240 250 258 267 274 273 272 274 276 275 276 277 277 275
135 120 54 356 292 236 325 202 261 288 259 233 260 275 292 299 250 235 226 221 220 226 230 228 233 230 223 224 231 228 221 220 223 231 241 251 263 270 275 276 276 279 283 285 284 283 282 281 277
176 159 161 198 199 255 114 229 252 247 275 262 264 273 278 284 259 232 221 220 221 222 224 229 231 222 220 225 228 226 226 229 236 240 248 260 267 269 273 277 282 285 287 286 285 283 281 279 276
184 204 157 104 51 47 229 284 289 265 272 268 275 277 269 263 243 231 222 218 218 219 224 231 225 222 223 228 229 233 239 240 241 244 254 263 268 274 279 282 286 288 286 284 284 282 279 276 272
177 157 136 99 219 270 257 257 232 284 244 262 269 268 260 231 227 224 218 217 217 222 229 228 226 226 229 230 236 244 247 246 244 251 258 262 267 273 280 284 286 286 285 285 282 277 274 269 265
155 189 200 148 160 196 261 254 220 234 235 250 238 264 259 252 243 230 220 217 221 229 234 236 231 233 235 239 246 250 252 251 251 254 257 260 265 270 276 280 284 285 287 283 278 274 268 262 255
222 218 198 199 219 239 234 253 223 226 228 206 213 254 285 271 261 246 231 225 227 234 240 240 238 242 243 246 250 254 256 255 255 253 256 258 263 267 272 277 281 280 280 278 275 269 259 248 237